Powrót do katalogu

TANSEI 3 DEB

AktywnyUNKNOWN
NORAD 19314·DEBRIS·🇯🇵 Japan

Wystrzelony Feb 19, 1977 z Uchinoura Space Center

Loading…

Następne Przeloty (najbliższe 24 godziny)

TLE

ŚwieżeSource: Space-Track

Epoka: Sep 8, 2026, 02:47 UTC

1 19314U 77012L   26251.11606117 -.00000053  00000-0 -13357-4 0  9997
2 19314  65.3684 182.3178 1865633 305.1878  38.7941 10.85849607578107

Śledź TANSEI 3 DEB w czasie rzeczywistym z AllMySat

Download on the App Store